Wind_Speed
38 40 41 41 41 41 41 42 42 42 41 41 39 38 38 37 37 38 37 35 36 36 37 38 38 38 39 39 38 38 39 36 31 26 22 29 36 38 40 36 32 28 25 24 25
42 41 43 45 45 44 45 45 45 45 45 44 44 44 43 41 40 39 39 37 37 38 39 39 40 40 39 39 40 40 39 39 37 33 31 36 39 41 42 38 34 31 26 26 27
43 43 44 45 47 48 49 50 52 52 49 47 46 47 47 47 45 43 42 39 39 37 39 40 39 40 41 40 40 40 40 41 42 40 40 38 40 42 44 37 38 35 31 29 29
48 49 50 51 53 54 53 52 53 52 53 53 52 49 49 51 52 50 48 46 44 44 40 41 40 40 40 41 41 41 41 42 42 42 42 40 41 43 42 38 40 37 33 33 33
55 57 58 59 60 61 61 60 59 59 55 57 56 56 55 54 53 54 53 53 52 49 47 46 45 43 43 42 41 40 40 42 42 43 43 42 40 41 40 39 41 39 38 35 34
57 59 64 66 67 65 65 63 62 60 61 63 62 62 63 59 56 56 55 54 51 52 52 51 49 49 49 45 43 41 42 43 43 42 41 41 41 45 39 40 44 44 40 35 34
61 64 64 65 61 60 57 55 54 53 52 55 57 59 59 56 54 52 53 55 54 52 49 50 50 51 53 52 51 47 45 43 43 42 41 40 41 40 40 42 43 43 39 38 34
63 57 57 54 49 48 49 50 51 49 52 52 53 53 52 53 54 54 53 52 54 54 51 50 50 51 52 51 52 51 50 47 42 42 42 42 40 41 43 44 41 40 40 35 31
53 53 49 47 48 50 50 51 52 52 52 51 51 52 53 56 53 51 56 54 52 53 52 52 53 53 53 55 54 53 51 46 44 43 44 44 45 45 44 44 42 41 39 35 34
45 47 47 47 49 50 53 52 50 50 49 50 51 52 55 55 55 55 53 52 53 54 55 54 54 56 58 58 57 49 47 46 49 46 47 48 50 47 45 44 43 44 39 35 36
41 43 45 47 49 49 47 47 45 44 45 45 47 46 48 52 56 53 53 53 52 53 56 56 57 57 57 55 52 54 53 53 56 52 48 45 45 49 49 45 44 44 40 37 37
43 45 46 47 45 42 43 43 45 44 38 42 46 47 45 44 44 49 51 53 53 53 56 58 56 56 57 56 53 55 53 54 50 44 45 47 50 48 44 46 45 42 39 37 39
39 38 40 42 42 42 41 43 43 42 41 44 40 40 41 44 46 44 47 49 51 53 56 59 55 55 58 58 56 56 53 51 50 48 45 48 50 45 43 44 41 40 38 37 39
35 37 40 41 40 41 40 41 41 40 40 41 42 39 34 34 39 45 45 45 47 48 49 53 56 57 54 49 48 46 42 44 41 42 48 49 55 53 48 44 43 39 37 40 44
35 36 37 39 39 40 40 42 42 42 41 42 40 39 39 37 37 38 42 42 44 47 49 49 48 50 49 46 45 51 43 42 46 49 49 46 48 49 46 45 42 39 41 43 45
33 35 38 39 40 40 41 41 40 40 44 44 45 44 40 42 42 43 39 43 44 43 42 43 46 48 45 43 41 41 45 45 45 43 50 49 48 52 51 43 40 40 42 45 43
33 36 38 39 39 41 40 39 40 40 43 45 45 44 45 42 40 43 42 42 44 44 42 40 42 45 47 44 41 43 44 44 46 48 50 46 47 49 49 46 43 40 44 41 40
34 36 37 37 37 37 39 40 42 44 45 47 48 47 47 45 44 42 43 44 46 48 42 37 37 43 47 46 46 44 43 46 46 45 48 53 54 51 48 46 45 44 44 41 41
34 34 35 36 36 38 40 39 43 47 49 50 49 48 45 41 43 41 43 44 46 47 43 40 38 39 40 43 46 47 51 45 45 47 47 49 50 51 49 46 46 46 44 43 40
33 34 32 35 37 38 39 43 47 46 43 44 43 42 39 33 31 34 36 40 45 48 47 44 40 31 33 32 27 38 42 40 45 48 50 53 52 52 50 48 47 47 46 45 42
31 32 33 34 37 38 41 45 40 36 39 41 39 38 35 36 31 29 26 29 40 43 49 47 45 38 35 30 32 32 35 40 44 44 47 50 51 52 52 51 49 49 50 48 44
31 33 33 36 38 40 43 38 35 36 42 42 38 36 33 33 31 28 28 26 28 34 40 45 47 43 36 44 42 37 31 30 32 39 48 48 52 52 51 50 50 51 51 48 45
32 33 34 37 39 41 42 35 36 39 41 37 35 35 34 31 31 26 26 29 27 27 33 43 45 43 30 34 40 40 46 48 43 37 42 46 52 53 52 51 50 51 50 48 44
33 34 36 38 40 42 38 35 38 41 35 33 31 33 32 28 27 25 23 25 28 27 27 27 38 41 37 30 33 40 35 35 40 40 40 46 51 48 48 50 52 52 54 49 38
33 34 37 39 43 43 36 37 38 35 31 30 23 22 20 16 12 15 16 9 10 10 14 21 31 35 35 38 33 39 42 41 43 41 42 42 51 55 50 48 49 50 54 56 40
33 34 37 41 44 40 39 37 36 29 23 12 9 9 7 5 11 9 5 5 9 11 16 18 22 32 37 35 36 34 33 32 36 36 42 44 52 43 48 51 46 48 53 53 43
33 35 38 42 43 38 36 37 29 19 7 2 5 9 6 8 13 13 13 14 15 16 20 18 18 22 32 39 36 46 30 30 32 33 33 45 49 48 51 53 57 55 44 39 33
Wind_Direction
277 279 279 277 277 276 276 275 275 274 274 275 274 270 271 269 267 266 261 259 261 262 260 260 259 260 261 260 258 257 255 254 253 255 246 246 257 263 264 267 268 268 265 262 271
281 279 281 282 281 278 278 278 276 274 273 271 270 270 271 270 265 263 264 263 259 260 262 260 261 259 257 258 258 257 255 254 254 257 249 247 251 259 263 264 265 265 261 263 268
287 288 289 288 287 286 281 280 281 280 276 272 269 268 268 267 267 263 263 265 265 262 261 260 259 259 259 259 258 259 259 258 253 256 255 249 251 253 259 262 262 261 259 261 263
290 290 292 294 293 290 289 286 281 277 276 275 273 270 268 268 266 263 261 263 265 267 262 263 261 259 259 259 258 257 258 259 258 260 258 253 249 253 256 258 257 257 254 257 265
291 292 290 292 292 291 288 285 283 280 273 269 269 269 270 267 268 267 265 263 263 262 263 262 261 262 260 259 259 260 261 260 257 257 258 257 256 256 254 251 253 252 252 255 262
289 290 293 291 289 288 286 282 280 273 272 271 266 267 269 268 267 267 268 266 263 263 261 260 259 260 260 260 259 259 256 256 256 256 255 257 256 254 253 247 247 248 253 257 261
290 291 290 289 287 286 286 285 283 278 274 271 270 268 268 269 270 267 266 266 266 264 261 260 259 258 258 258 258 257 255 256 257 254 255 254 253 258 251 247 246 250 253 256 261
288 286 286 286 285 284 283 281 281 279 276 274 274 271 270 270 269 268 264 263 263 262 259 257 256 257 258 257 255 254 253 252 255 255 254 254 253 253 250 247 247 248 251 255 258
284 283 282 282 283 283 282 281 281 278 276 275 274 272 270 269 270 267 267 265 263 260 258 256 257 257 255 255 254 253 253 254 253 254 255 253 250 250 250 247 246 249 250 254 257
282 282 280 281 282 284 284 282 282 282 282 282 280 276 272 272 271 272 266 265 263 259 255 252 253 257 255 253 256 256 253 249 248 249 249 247 247 249 252 247 247 250 251 252 254
281 282 281 282 283 283 282 283 283 284 283 281 281 281 276 276 276 272 269 267 262 261 256 252 249 255 254 252 250 250 248 247 247 251 251 249 250 249 247 248 246 246 249 252 254
281 282 284 283 282 283 284 282 282 283 277 279 282 282 281 275 269 265 263 263 259 257 254 252 254 249 248 247 247 248 247 247 247 250 251 245 242 248 250 251 252 251 249 250 253
282 284 283 282 281 281 282 281 283 285 284 282 280 278 280 277 272 265 261 258 256 253 253 252 251 245 242 240 243 247 244 245 248 247 243 244 238 243 247 250 251 252 253 255 259
282 285 285 285 288 288 287 286 285 286 287 288 288 290 285 278 273 272 263 258 257 256 251 250 249 246 238 239 241 245 244 246 248 248 244 242 245 242 244 248 250 253 257 256 254
285 284 283 284 285 286 288 287 287 289 289 286 287 285 280 276 273 269 268 263 255 252 254 252 248 242 236 234 238 239 233 238 242 243 245 243 243 244 242 247 250 251 250 252 254
282 283 284 283 284 286 287 288 288 289 289 288 287 287 284 278 275 273 267 266 261 257 257 251 248 241 238 235 240 240 236 236 243 249 247 244 245 246 255 251 248 246 248 250 253
281 282 282 283 286 288 290 291 291 291 292 290 290 288 286 283 278 275 265 265 263 261 258 250 245 244 238 235 237 243 243 243 242 242 246 250 250 252 257 255 253 248 246 250 249
280 281 284 287 288 289 291 293 295 295 293 293 291 288 286 282 275 265 260 257 258 260 257 252 250 248 242 240 239 239 244 246 250 251 250 247 250 257 253 252 253 249 250 249 249
283 286 287 290 293 295 297 299 300 301 299 296 292 287 283 280 276 265 255 251 249 252 252 248 244 243 249 247 244 242 241 244 245 246 250 248 251 255 255 253 252 255 256 258 261
287 290 295 298 300 300 302 304 307 306 305 303 299 292 285 276 273 273 263 251 245 247 247 246 241 240 246 237 237 242 244 243 245 245 248 249 252 255 255 255 256 256 258 261 261
290 296 301 302 303 306 308 311 311 311 309 310 305 298 289 281 273 273 270 259 249 245 251 244 245 239 235 221 237 239 242 242 242 245 247 250 251 254 254 256 255 256 259 257 260
298 304 305 306 309 309 315 313 308 307 308 306 299 297 295 284 276 268 270 268 262 251 245 251 249 248 249 246 235 242 249 247 245 253 253 254 255 259 260 260 259 259 258 256 258
303 307 308 311 311 315 317 309 303 305 305 300 293 291 292 287 281 272 271 274 268 261 257 248 248 246 250 250 255 256 250 252 248 252 256 256 255 260 263 265 266 264 260 257 260
306 308 311 312 313 318 316 306 304 306 303 295 289 285 282 284 284 284 277 277 277 270 257 255 246 245 238 240 236 229 223 232 248 251 256 260 260 256 259 263 263 264 266 262 266
307 310 312 316 320 321 315 310 308 305 296 290 293 290 287 285 277 283 293 294 281 264 269 253 245 237 243 239 239 237 243 245 249 254 258 263 264 261 258 261 265 269 269 266 266
309 312 314 318 323 322 318 314 309 298 287 288 340 303 285 288 297 277 307 290 266 293 286 279 262 242 236 243 239 236 233 244 253 249 256 260 260 263 261 260 269 273 270 265 258
307 312 317 321 326 322 319 315 303 284 254 317 284 306 319 293 296 303 262 287 288 284 287 286 269 255 245 238 239 245 241 252 257 264 277 268 265 269 268 269 273 265 259 254 250
Height
5781 5781 5781 5781 5781 5781 5781 5780 5780 5779 5779 5780 5780 5781 5780 5780 5780 5781 5781 5781 5780 5781 5782 5783 5783 5784 5785 5786 5787 5788 5790 5793 5796 5797 5799 5798 5795 5796 5797 5800 5800 5799 5799 5798 5797
5775 5774 5774 5774 5773 5772 5771 5771 5770 5770 5770 5770 5770 5770 5770 5771 5772 5771 5772 5771 5771 5772 5772 5773 5774 5774 5775 5777 5778 5780 5782 5784 5788 5788 5789 5788 5788 5788 5788 5792 5793 5793 5793 5792 5791
5766 5765 5764 5764 5764 5764 5763 5761 5760 5760 5760 5759 5759 5759 5759 5760 5762 5762 5761 5761 5762 5763 5764 5763 5764 5765 5766 5767 5769 5772 5775 5775 5776 5777 5778 5779 5780 5780 5780 5785 5784 5785 5785 5785 5785
5755 5754 5753 5753 5752 5752 5751 5750 5749 5749 5750 5749 5748 5747 5748 5750 5749 5749 5751 5752 5752 5752 5753 5754 5754 5755 5757 5758 5759 5760 5764 5765 5768 5767 5768 5771 5770 5771 5773 5777 5776 5777 5778 5777 5778
5743 5742 5742 5741 5740 5739 5738 5737 5737 5736 5736 5737 5736 5737 5736 5737 5737 5734 5736 5739 5740 5741 5742 5743 5744 5745 5747 5747 5748 5751 5754 5755 5755 5756 5758 5760 5763 5764 5766 5766 5767 5768 5768 5770 5771
5730 5730 5729 5727 5725 5723 5722 5721 5720 5720 5720 5721 5722 5722 5724 5723 5721 5722 5723 5724 5725 5727 5729 5731 5732 5734 5736 5738 5739 5741 5742 5743 5745 5746 5747 5751 5754 5751 5759 5757 5756 5758 5760 5762 5763
5717 5716 5714 5713 5710 5709 5707 5706 5707 5706 5705 5704 5705 5707 5710 5709 5707 5709 5710 5712 5712 5713 5716 5717 5719 5721 5724 5726 5728 5729 5731 5733 5734 5735 5737 5739 5744 5745 5747 5746 5748 5750 5752 5753 5755
5703 5702 5701 5700 5699 5698 5697 5695 5694 5693 5692 5692 5693 5694 5696 5695 5693 5694 5696 5697 5698 5699 5701 5704 5705 5707 5711 5714 5715 5718 5720 5721 5725 5727 5727 5728 5736 5736 5735 5736 5739 5741 5742 5745 5747
5691 5691 5689 5688 5687 5687 5683 5683 5683 5681 5681 5679 5679 5680 5682 5681 5679 5680 5682 5684 5686 5688 5688 5689 5692 5696 5697 5699 5702 5703 5710 5715 5715 5715 5716 5718 5722 5723 5725 5727 5730 5732 5734 5737 5738
5680 5680 5678 5676 5676 5675 5674 5672 5671 5670 5668 5666 5665 5669 5666 5665 5666 5664 5667 5670 5670 5673 5674 5674 5676 5682 5684 5684 5690 5696 5698 5701 5701 5701 5702 5706 5710 5712 5714 5717 5721 5723 5726 5726 5727
5670 5670 5668 5665 5663 5665 5664 5662 5663 5661 5657 5652 5651 5653 5652 5653 5653 5649 5652 5655 5657 5659 5660 5661 5661 5668 5670 5674 5677 5678 5683 5686 5688 5689 5692 5699 5703 5702 5704 5708 5711 5713 5715 5716 5717
5659 5657 5656 5654 5653 5653 5654 5651 5650 5650 5650 5639 5638 5638 5641 5642 5640 5634 5637 5641 5641 5645 5644 5645 5653 5655 5656 5657 5661 5665 5670 5675 5676 5678 5681 5687 5692 5692 5695 5697 5698 5702 5705 5707 5709
5650 5647 5647 5644 5643 5642 5641 5640 5638 5637 5636 5630 5630 5629 5628 5628 5626 5627 5625 5624 5627 5630 5630 5632 5642 5640 5640 5643 5646 5651 5657 5662 5666 5666 5670 5674 5679 5682 5686 5687 5689 5692 5695 5698 5700
5639 5639 5638 5636 5634 5632 5631 5630 5628 5625 5625 5622 5620 5618 5618 5616 5613 5611 5613 5614 5612 5616 5616 5619 5625 5626 5626 5631 5634 5640 5648 5650 5652 5653 5656 5662 5665 5672 5676 5678 5679 5683 5685 5689 5690
5631 5631 5629 5626 5625 5624 5622 5620 5618 5616 5615 5614 5611 5607 5606 5607 5604 5599 5599 5599 5598 5601 5604 5613 5614 5613 5613 5622 5622 5628 5633 5637 5638 5641 5646 5653 5655 5657 5661 5664 5669 5674 5677 5678 5678
5623 5623 5620 5619 5617 5615 5613 5610 5609 5609 5604 5602 5600 5597 5596 5595 5593 5590 5589 5587 5587 5589 5594 5599 5600 5600 5604 5607 5610 5616 5620 5624 5628 5631 5632 5641 5646 5646 5646 5654 5660 5664 5666 5667 5668
5616 5615 5613 5611 5608 5606 5603 5601 5599 5598 5595 5593 5590 5587 5584 5584 5583 5579 5579 5578 5578 5578 5581 5585 5588 5591 5592 5595 5600 5605 5607 5612 5618 5619 5623 5631 5633 5634 5637 5641 5647 5652 5654 5656 5658
5607 5607 5604 5602 5600 5598 5595 5593 5589 5586 5584 5580 5577 5575 5571 5571 5569 5569 5567 5567 5568 5569 5571 5573 5578 5578 5582 5586 5592 5594 5599 5603 5607 5611 5617 5619 5620 5621 5628 5632 5635 5638 5642 5644 5646
5600 5598 5596 5594 5591 5588 5586 5582 5577 5574 5571 5566 5562 5557 5557 5554 5551 5554 5555 5557 5558 5559 5562 5564 5568 5570 5572 5574 5578 5582 5583 5594 5597 5601 5605 5609 5611 5612 5617 5622 5624 5627 5629 5629 5632
5592 5590 5587 5585 5582 5579 5576 5571 5565 5560 5555 5550 5547 5544 5541 5542 5542 5540 5542 5543 5547 5548 5549 5552 5560 5566 5565 5567 5569 5572 5577 5581 5583 5588 5593 5596 5599 5601 5606 5611 5614 5615 5616 5618 5621
5584 5582 5579 5577 5573 5569 5565 5560 5554 5549 5545 5542 5537 5532 5530 5528 5531 5531 5532 5533 5534 5539 5538 5543 5547 5557 5561 5562 5563 5567 5568 5570 5575 5578 5582 5587 5589 5592 5597 5601 5604 5605 5605 5607 5611
5576 5575 5571 5568 5566 5559 5555 5549 5545 5540 5534 5531 5527 5524 5520 5518 5520 5522 5523 5524 5525 5529 5530 5531 5536 5543 5548 5553 5554 5556 5561 5563 5565 5570 5574 5576 5581 5584 5586 5590 5593 5594 5594 5597 5600
5568 5567 5563 5559 5555 5550 5545 5540 5535 5532 5526 5522 5518 5515 5512 5511 5510 5513 5515 5516 5518 5520 5521 5524 5527 5533 5538 5544 5545 5546 5551 5554 5558 5561 5563 5568 5574 5574 5578 5579 5581 5580 5582 5585 5590
5562 5558 5554 5551 5546 5542 5536 5532 5526 5520 5517 5511 5510 5505 5504 5505 5504 5506 5508 5509 5508 5511 5513 5514 5518 5523 5530 5533 5535 5539 5540 5543 5548 5552 5554 5558 5562 5564 5566 5568 5571 5572 5571 5572 5578
5554 5551 5546 5541 5536 5531 5527 5522 5516 5512 5506 5502 5502 5498 5498 5500 5500 5500 5502 5503 5502 5503 5505 5506 5507 5511 5517 5522 5525 5528 5532 5535 5539 5542 5544 5552 5549 5555 5559 5558 5560 5563 5565 5565 5572
5547 5544 5539 5534 5528 5522 5517 5512 5506 5502 5500 5498 5498 5496 5496 5497 5498 5497 5499 5499 5500 5500 5500 5500 5502 5503 5508 5512 5517 5520 5524 5527 5531 5532 5533 5537 5539 5549 5547 5548 5551 5554 5555 5557 5564
5540 5537 5532 5527 5520 5515 5509 5503 5497 5495 5496 5496 5496 5496 5496 5496 5496 5495 5496 5497 5498 5497 5495 5495 5496 5496 5501 5505 5505 5508 5521 5521 5523 5525 5526 5526 5534 5537 5538 5538 5538 5544 5547 5549 5553